• In Kazakhstan
  • List of Countries
  • For 7 days
  • Water Temperature
  • Satellite Maps
  • Weather Map
  • News
  • Weather Widgets
  • user-avatar
    Login

    Hourly Weather Córdoba

    Today, 17 January, Thursday

    Time Temperature Precipitation Wind Pressure Humidity
    00:00 +25°C° 0 mm 1 mps 721 mmHg 71%
    01:00 +24°C° 0 mm 1 mps 721 mmHg 74%
    02:00 +22°C° 0 mm 0 mps 722 mmHg 76%
    03:00 +23°C° 0 mm 1 mps 722 mmHg 77%
    04:00 +23°C° 0 mm 2 mps 722 mmHg 79%
    05:00 +22°C° 0 mm 3 mps 723 mmHg 80%
    06:00 +21°C° 0.2 mm 5 mps 723 mmHg 82%
    07:00 +20°C° 0.2 mm 6 mps 724 mmHg 84%
    08:00 +18°C° 0.2 mm 7 mps 724 mmHg 86%
    09:00 +17°C° 0.4 mm 7 mps 725 mmHg 86%
    10:00 +16°C° 0.4 mm 7 mps 725 mmHg 86%
    11:00 +15°C° 0.4 mm 7 mps 726 mmHg 87%
    12:00 +15°C° 0.1 mm 7 mps 726 mmHg 85%
    13:00 +15°C° 0.1 mm 7 mps 726 mmHg 84%
    14:00 +16°C° 0.1 mm 7 mps 726 mmHg 82%
    15:00 +15°C° 1.3 mm 7 mps 726 mmHg 84%
    16:00 +15°C° 1.3 mm 7 mps 726 mmHg 86%
    17:00 +14°C° 1.3 mm 7 mps 726 mmHg 89%
    18:00 +14°C° 1.2 mm 7 mps 727 mmHg 89%
    19:00 +12°C° 1.2 mm 7 mps 727 mmHg 89%
    20:00 +13°C° 1.2 mm 6 mps 727 mmHg 89%
    21:00 +13°C° 2.5 mm 6 mps 728 mmHg 88%
    22:00 +13°C° 2.5 mm 6 mps 728 mmHg 88%
    23:00 +13°C° 2.5 mm 5 mps 728 mmHg 87%

    Tomorrow, 18 January, Friday

    Time Temperature Precipitation Wind Pressure Humidity
    00:00 +13°C° 0.2 mm 5 mps 728 mmHg 83%
    01:00 +13°C° 0.2 mm 4 mps 728 mmHg 79%
    02:00 +12°C° 0.2 mm 4 mps 728 mmHg 75%
    03:00 +13°C° 0 mm 4 mps 728 mmHg 75%
    04:00 +13°C° 0 mm 4 mps 728 mmHg 74%
    05:00 +13°C° 0 mm 4 mps 728 mmHg 74%
    06:00 +14°C° 0 mm 4 mps 728 mmHg 72%
    07:00 +15°C° 0 mm 4 mps 728 mmHg 69%
    08:00 +17°C° 0 mm 4 mps 729 mmHg 67%
    09:00 +19°C° 0 mm 4 mps 729 mmHg 64%
    10:00 +20°C° 0 mm 4 mps 729 mmHg 60%
    11:00 +22°C° 0 mm 4 mps 729 mmHg 57%
    12:00 +23°C° 0 mm 4 mps 728 mmHg 56%
    13:00 +23°C° 0 mm 4 mps 728 mmHg 55%
    14:00 +25°C° 0 mm 5 mps 727 mmHg 54%
    15:00 +25°C° 0 mm 4 mps 727 mmHg 56%
    16:00 +23°C° 0 mm 4 mps 726 mmHg 58%
    17:00 +23°C° 0 mm 4 mps 726 mmHg 59%
    18:00 +22°C° 0 mm 3 mps 726 mmHg 64%
    19:00 +21°C° 0 mm 2 mps 726 mmHg 69%
    20:00 +20°C° 0 mm 1 mps 726 mmHg 73%
    21:00 +20°C° 0 mm 1 mps 727 mmHg 76%
    22:00 +19°C° 0 mm 1 mps 727 mmHg 78%
    23:00 +18°C° 0 mm 1 mps 728 mmHg 81%

    Day after tomorrow, 19 January, Saturday

    Time Temperature Precipitation Wind Pressure Humidity
    00:00 +18°C° 0 mm 1 mps 727 mmHg 81%
    01:00 +16°C° 0 mm 1 mps 727 mmHg 82%
    02:00 +16°C° 0 mm 1 mps 727 mmHg 82%
    03:00 +16°C° 0 mm 1 mps 727 mmHg 82%
    04:00 +16°C° 0 mm 1 mps 727 mmHg 82%
    05:00 +16°C° 0 mm 1 mps 726 mmHg 81%
    06:00 +18°C° 0 mm 1 mps 727 mmHg 75%
    07:00 +20°C° 0 mm 1 mps 727 mmHg 69%
    08:00 +22°C° 0 mm 1 mps 727 mmHg 63%
    09:00 +24°C° 0 mm 2 mps 727 mmHg 57%
    10:00 +25°C° 0 mm 3 mps 727 mmHg 52%
    11:00 +27°C° 0 mm 3 mps 727 mmHg 47%
    12:00 +28°C° 0 mm 4 mps 727 mmHg 45%
    13:00 +29°C° 0 mm 4 mps 726 mmHg 44%
    14:00 +29°C° 0 mm 5 mps 726 mmHg 42%
    15:00 +29°C° 0 mm 5 mps 725 mmHg 45%
    16:00 +28°C° 0 mm 5 mps 725 mmHg 49%
    17:00 +28°C° 0 mm 5 mps 724 mmHg 52%
    18:00 +26°C° 0 mm 4 mps 724 mmHg 59%
    19:00 +23°C° 0 mm 4 mps 724 mmHg 67%
    20:00 +21°C° 0 mm 3 mps 725 mmHg 74%
    21:00 +21°C° 0 mm 2 mps 725 mmHg 78%
    22:00 +20°C° 0 mm 2 mps 725 mmHg 81%
    23:00 +19°C° 0 mm 2 mps 726 mmHg 84%

    20 January, Sunday

    Time Temperature Precipitation Wind Pressure Humidity
    00:00 +19°C° 0 mm 2 mps 725 mmHg 85%
    01:00 +19°C° 0 mm 2 mps 725 mmHg 86%
    02:00 +18°C° 0 mm 2 mps 724 mmHg 87%
    03:00 +18°C° 0 mm 2 mps 724 mmHg 88%
    04:00 +18°C° 0 mm 2 mps 724 mmHg 90%
    05:00 +18°C° 0 mm 2 mps 724 mmHg 92%
    06:00 +19°C° 0 mm 2 mps 724 mmHg 84%
    07:00 +21°C° 0 mm 2 mps 724 mmHg 77%
    08:00 +22°C° 0 mm 3 mps 725 mmHg 69%
    09:00 +25°C° 0 mm 3 mps 724 mmHg 62%
    10:00 +27°C° 0 mm 4 mps 724 mmHg 54%
    11:00 +29°C° 0 mm 4 mps 724 mmHg 46%
    12:00 +29°C° 0 mm 5 mps 723 mmHg 46%
    13:00 +30°C° 0 mm 5 mps 723 mmHg 45%
    14:00 +32°C° 0 mm 6 mps 722 mmHg 45%
    15:00 +30°C° 0 mm 6 mps 721 mmHg 48%
    16:00 +30°C° 0 mm 6 mps 721 mmHg 50%
    17:00 +29°C° 0 mm 6 mps 720 mmHg 53%
    18:00 +27°C° 0 mm 5 mps 720 mmHg 60%
    19:00 +26°C° 0 mm 4 mps 721 mmHg 67%
    20:00 +24°C° 0 mm 3 mps 721 mmHg 74%
    21:00 +22°C° 0 mm 3 mps 721 mmHg 77%
    22:00 +23°C° 0 mm 2 mps 722 mmHg 80%
    23:00 +21°C° 0 mm 2 mps 722 mmHg 83%

    21 January, Monday

    Time Temperature Precipitation Wind Pressure Humidity
    00:00 +20°C° 0 mm 2 mps 722 mmHg 84%
    01:00 +20°C° 0 mm 2 mps 721 mmHg 86%
    02:00 +20°C° 0 mm 2 mps 721 mmHg 87%
    03:00 +19°C° 0 mm 2 mps 721 mmHg 87%
    04:00 +19°C° 0 mm 2 mps 721 mmHg 87%
    05:00 +20°C° 0 mm 1 mps 721 mmHg 88%
    06:00 +21°C° 0 mm 2 mps 721 mmHg 79%
    07:00 +24°C° 0 mm 2 mps 722 mmHg 71%
    08:00 +26°C° 0 mm 2 mps 722 mmHg 62%
    09:00 +28°C° 0 mm 2 mps 723 mmHg 54%
    10:00 +31°C° 0 mm 2 mps 723 mmHg 46%
    11:00 +34°C° 0 mm 3 mps 723 mmHg 38%
    12:00 +35°C° 0 mm 3 mps 722 mmHg 36%
    13:00 +36°C° 0 mm 3 mps 722 mmHg 34%
    14:00 +37°C° 0 mm 4 mps 721 mmHg 32%
    15:00 +36°C° 0 mm 4 mps 721 mmHg 35%
    16:00 +36°C° 0 mm 4 mps 720 mmHg 37%
    17:00 +35°C° 0 mm 5 mps 720 mmHg 40%
    18:00 +33°C° 0 mm 4 mps 720 mmHg 48%
    19:00 +30°C° 0 mm 3 mps 720 mmHg 56%
    20:00 +28°C° 0 mm 3 mps 720 mmHg 64%
    21:00 +27°C° 0 mm 3 mps 721 mmHg 68%
    22:00 +26°C° 0 mm 2 mps 721 mmHg 72%
    23:00 +25°C° 0 mm 2 mps 721 mmHg 76%

    22 January, Tuesday

    Time Temperature Precipitation Wind Pressure Humidity
    00:00 +25°C° 0 mm 2 mps 721 mmHg 78%
    01:00 +25°C° 0 mm 2 mps 720 mmHg 80%
    02:00 +24°C° 0 mm 1 mps 720 mmHg 82%
    03:00 +24°C° 0 mm 1 mps 720 mmHg 83%
    04:00 +24°C° 0 mm 2 mps 720 mmHg 84%
    05:00 +23°C° 0 mm 2 mps 720 mmHg 85%
    06:00 +25°C° 0 mm 2 mps 720 mmHg 78%
    07:00 +27°C° 0 mm 3 mps 720 mmHg 71%
    08:00 +29°C° 0 mm 4 mps 721 mmHg 64%
    09:00 +32°C° 0 mm 5 mps 721 mmHg 59%
    10:00 +34°C° 0 mm 5 mps 720 mmHg 53%
    11:00 +36°C° 0 mm 6 mps 720 mmHg 47%
    12:00 +36°C° 0 mm 6 mps 719 mmHg 45%
    13:00 +38°C° 0 mm 6 mps 719 mmHg 43%
    14:00 +39°C° 0 mm 6 mps 718 mmHg 41%
    15:00 +39°C° 0 mm 6 mps 718 mmHg 41%
    16:00 +39°C° 0 mm 6 mps 717 mmHg 41%
    17:00 +39°C° 0 mm 6 mps 717 mmHg 41%
    18:00 +36°C° 0 mm 5 mps 717 mmHg 48%
    19:00 +34°C° 0 mm 4 mps 717 mmHg 54%
    20:00 +33°C° 0 mm 3 mps 718 mmHg 61%
    21:00 +31°C° 0.3 mm 3 mps 718 mmHg 66%
    22:00 +30°C° 0.3 mm 3 mps 718 mmHg 72%
    23:00 +29°C° 0.3 mm 2 mps 718 mmHg 78%
    Show more